Weather History for Fargo, ND

Change the Weather History Date:

Sunday, November 25, 2012

  Actual Average Record
Temperature  
Mean Temperature 18 °F 23 °F  
Max Temperature 30 °F 31 °F 57 °F (1984)
Min Temperature 6 °F 15 °F -22 °F (1886)
Degree Days  
Heating Degree Days 47 42  
Month to date heating degree days 822 867  
Since 1 July heating degree days 1699 1743  
Cooling Degree Days 0 0  
Month to date cooling degree days 0 0  
Year to date cooling degree days 795 551  
Moisture  
Dew Point 14 °F    
Average Humidity 71    
Maximum Humidity 81    
Minimum Humidity 61    
Precipitation  
Precipitation T in 0.03 in 0.51 in (1993)
Month to date precipitation 0.59 0.86  
Year to date precipitation 14.15 21.64  
Snow  
Snow T in 0.30 in 7.80 in (1993)
Month to date snowfall 4.8 6.1  
Since 1 July snowfall 8.4 6.8  
Since 1 September snowfall 8.4 6.8  
Snow Depth 2.00 in    
Sea Level Pressure  
Sea Level Pressure 30.09 in    
Wind  
Wind Speed 13 mph (NNW)    
Max Wind Speed 24 mph    
Max Gust Speed 29 mph    
Visibility 9 miles    
Events Snow    
T = Trace of Precipitation, MM = Missing Value Source: NWS Daily Summary

Daily Weather History Graph

Daily Weather History Graph

Search for Another Location

Airport:

Trip Planner

Search our weather history database for the weather conditions in past years. The results will help you decide how hot, cold, wet, or windy it might be!

Date:

Astronomy

Nov. 25, 2012 Rise Set
Actual Time 7:45 AM CST 4:43 PM CST
Civil Twilight 7:10 AM CST 5:17 PM CST
Nautical Twilight 6:33 AM CST 5:55 PM CST
Astronomical Twilight 5:56 AM CST 6:31 PM CST
Moon 3:07 PM CST (11/25) 4:52 AM CST (11/25)
Length of Visible Light 10h 06m
Length of Day
8h 58m
Waxing Gibbous, 93% of the Moon is Illuminated
Nov 25
Waxing Gibbous
Nov 28
Full
Dec 6
Last Quarter
Dec 13
New
Dec 19
First Quarter

Hourly Weather History & Observations

Time (CST) Temp. Windchill Dew Point Humidity Pressure Visibility Wind Dir Wind Speed Gust Speed Precip Events Conditions
12:53 AM 26.1 °F 12.3 °F 19.9 °F 78% 29.96 in 10.0 mi NW 19.6 mph 24.2 mph N/A   Overcast
1:53 AM 26.1 °F 14.0 °F 19.0 °F 75% 29.98 in 10.0 mi NW 15.0 mph - N/A   Overcast
2:53 AM 25.0 °F 14.2 °F 18.0 °F 75% 30.00 in 10.0 mi NW 11.5 mph - N/A   Overcast
3:53 AM 25.0 °F 14.2 °F 17.1 °F 72% 30.00 in 10.0 mi NW 11.5 mph - N/A   Overcast
4:53 AM 25.0 °F 18.1 °F 17.1 °F 72% 29.99 in 10.0 mi NNW 5.8 mph - N/A   Overcast
5:53 AM 25.0 °F 20.7 °F 18.0 °F 75% 29.99 in 10.0 mi West 3.5 mph - N/A   Overcast
6:53 AM 26.1 °F 15.0 °F 18.0 °F 71% 30.01 in 10.0 mi WNW 12.7 mph - N/A   Overcast
7:53 AM 24.1 °F 18.2 °F 18.0 °F 77% 29.98 in 10.0 mi WSW 4.6 mph - N/A   Overcast
8:53 AM 25.0 °F 13.6 °F 19.0 °F 78% 30.01 in 8.0 mi WSW 12.7 mph - N/A   Overcast
9:53 AM 27.0 °F 15.2 °F 19.9 °F 75% 30.01 in 9.0 mi WSW 15.0 mph - N/A   Overcast
10:53 AM 28.0 °F 17.5 °F 21.9 °F 78% 30.01 in 8.0 mi WSW 12.7 mph - N/A   Overcast
11:53 AM 28.9 °F 16.5 °F 19.0 °F 67% 30.02 in 3.0 mi NW 18.4 mph - 0.00 in Snow Light Snow
12:13 PM 28.4 °F 16.6 °F 17.6 °F 64% 29.98 in 10.0 mi NW 16.1 mph - 0.00 in   Overcast
12:51 PM 28.4 °F 15.4 °F 21.2 °F 74% 29.99 in 8.0 mi NNW 19.6 mph - 0.00 in Snow Light Snow
12:53 PM 28.0 °F 14.6 °F 19.9 °F 72% 30.03 in 9.0 mi NNW 20.7 mph - 0.00 in   Overcast
1:53 PM 25.0 °F 10.6 °F 18.0 °F 75% 30.06 in 10.0 mi North 20.7 mph - N/A   Overcast
2:19 PM 24.8 °F 11.1 °F 15.8 °F 69% 30.03 in 10.0 mi North 18.4 mph - N/A   Overcast
2:53 PM 21.9 °F 8.7 °F 15.1 °F 75% 30.10 in 10.0 mi North 15.0 mph - N/A   Overcast
3:14 PM 21.2 °F 7.3 °F 14.0 °F 74% 30.05 in 10.0 mi North 16.1 mph - N/A   Overcast
3:39 PM 21.2 °F 6.8 °F 14.0 °F 74% 30.07 in 10.0 mi North 17.3 mph - N/A   Overcast
3:51 PM 21.2 °F 7.3 °F 12.2 °F 68% 30.08 in 10.0 mi North 16.1 mph - N/A   Overcast
3:53 PM 21.0 °F 7.6 °F 12.9 °F 71% 30.13 in 10.0 mi North 15.0 mph - N/A   Overcast
4:02 PM 19.4 °F 6.0 °F 10.4 °F 68% 30.08 in 10.0 mi North 13.8 mph - N/A   Overcast
4:53 PM 18.0 °F 3.6 °F 10.0 °F 71% 30.15 in 10.0 mi NNE 15.0 mph - N/A   Overcast
5:53 PM 17.1 °F 2.0 °F 7.0 °F 65% 30.19 in 10.0 mi North 16.1 mph - N/A   Overcast
6:53 PM 17.1 °F 2.0 °F 7.0 °F 65% 30.22 in 10.0 mi North 16.1 mph - N/A   Overcast
7:53 PM 15.1 °F 3.3 °F 7.0 °F 70% 30.26 in 10.0 mi North 9.2 mph - N/A   Overcast
8:53 PM 12.0 °F -1.3 °F 5.0 °F 73% 30.29 in 10.0 mi NNW 10.4 mph - N/A   Scattered Clouds
9:53 PM 9.0 °F -4.2 °F 3.0 °F 77% 30.32 in 10.0 mi NNW 9.2 mph - N/A   Clear
10:53 PM 8.1 °F -5.3 °F 1.9 °F 76% 30.34 in 10.0 mi NNW 9.2 mph - N/A   Clear
11:53 PM 7.0 °F -3.3 °F 1.0 °F 77% 30.37 in 10.0 mi NNW 5.8 mph - N/A   Clear